Location: Crab Orchard
(37.7292°N, 88.8042°W)
Time: 08:40:25
(UTC+00:00)

Cosmos 1733 Rocket - Pass Details

Date: 08 December 2019
Orbit: 604 x 627 km, 82.5° (Epoch: 26 January)

Event Time Altitude Azimuth Distance (km) Brightness Sun altitude
Rises 23:43:07 0° 347° (NNW) 2,886 6.4 -12.9°
Reaches altitude 10° 23:45:22 10° 344° (NNW) 1,980 5.6 -13.4°
Maximum altitude 23:49:39 55° 267° (W) 741 3.8 -14.2°
Drops below altitude 10° 23:53:56 10° 189° (S) 1,980 6.0 -15.0°
Sets 23:56:11 0° 185° (S) 2,885 6.8 -15.4°
